Location: Wells
(51.2093°N, 2.6446°W)
Time: 05:45:24
(UTC+01:00)

STARS - Pass Details

Date: 21 March 2026
Orbit: 575 x 588 km, 98.2° (Epoch: 17 April)

Event Time Altitude Azimuth Distance (km) Brightness Sun altitude
Rises 02:47:34 0° 11° (N) 2,802 ? -29.7°
Reaches altitude 10° 02:49:45 10° 7° (N) 1,898 ? -29.4°
Enters shadow 02:51:39 26° 357° (N) 1,164 ? -29.2°
